Time,TemperatureF,DewpointF,PressureIn,WindDirection,WindDirectionDegrees,WindSpeedMPH,WindSpeedGustMPH,Humidity,HourlyPrecipIn,Conditions,Clouds,dailyrainin,SoftwareType,DateUTC
2013-06-30 00:01:00,88.6,60.4,29.75,SE,141,0.0,0.0,39,0.00,,,0.00,WeatherCatV1.13B119,2013-06-30 05:01:00,
2013-06-30 00:06:00,88.4,60.3,29.75,ESE,120,0.0,0.0,39,0.00,,,0.00,WeatherCatV1.13B119,2013-06-30 05:06:00,
2013-06-30 00:11:00,88.2,60.1,29.76,East,86,0.0,2.0,39,0.00,,,0.00,WeatherCatV1.13B119,2013-06-30 05:11:00,
2013-06-30 00:16:00,88.2,60.1,29.76,SSE,159,0.0,2.0,39,0.00,,,0.00,WeatherCatV1.13B119,2013-06-30 05:16:00,
2013-06-30 00:21:00,88.1,60.0,29.76,East,101,1.0,1.0,39,0.00,,,0.00,WeatherCatV1.13B119,2013-06-30 05:21:00,
2013-06-30 00:26:00,88.2,59.3,29.76,SW,224,0.0,0.0,38,0.00,,,0.00,WeatherCatV1.13B119,2013-06-30 05:26:00,
2013-06-30 00:31:00,88.1,59.3,29.76,ESE,117,1.0,2.0,38,0.00,,,0.00,WeatherCatV1.13B119,2013-06-30 05:31:00,
2013-06-30 00:36:00,88.0,58.4,29.76,ENE,66,0.0,3.0,37,0.00,,,0.00,WeatherCatV1.13B119,2013-06-30 05:36:00,
2013-06-30 00:41:00,88.0,58.4,29.76,East,95,0.0,4.0,37,0.00,,,0.00,WeatherCatV1.13B119,2013-06-30 05:41:00,
2013-06-30 00:46:00,88.0,58.4,29.76,East,86,0.0,2.0,37,0.00,,,0.00,WeatherCatV1.13B119,2013-06-30 05:46:00,
2013-06-30 00:51:00,87.9,58.3,29.76,East,90,0.0,1.0,37,0.00,,,0.00,WeatherCatV1.13B119,2013-06-30 05:51:00,
2013-06-30 00:56:00,87.7,58.2,29.76,SSE,148,0.0,0.0,37,0.00,,,0.00,WeatherCatV1.13B119,2013-06-30 05:56:00,
2013-06-30 01:01:00,87.7,58.2,29.76,East,84,0.0,0.0,37,0.00,,,0.00,WeatherCatV1.13B119,2013-06-30 06:01:00,
2013-06-30 01:06:00,87.6,58.8,29.77,SE,131,0.0,1.0,38,0.00,,,0.00,WeatherCatV1.13B119,2013-06-30 06:06:00,
2013-06-30 01:11:00,87.6,58.8,29.77,SE,132,1.0,2.0,38,0.00,,,0.00,WeatherCatV1.13B119,2013-06-30 06:11:00,
2013-06-30 01:16:00,87.5,58.7,29.77,East,83,0.0,1.0,38,0.00,,,0.00,WeatherCatV1.13B119,2013-06-30 06:16:00,
2013-06-30 01:21:00,87.4,58.6,29.77,East,96,3.0,3.0,38,0.00,,,0.00,WeatherCatV1.13B119,2013-06-30 06:21:00,
2013-06-30 01:26:00,87.5,58.0,29.77,SSE,155,1.0,3.0,37,0.00,,,0.00,WeatherCatV1.13B119,2013-06-30 06:26:00,
2013-06-30 01:31:00,87.4,57.9,29.76,ESE,111,0.0,1.0,37,0.00,,,0.00,WeatherCatV1.13B119,2013-06-30 06:31:00,
2013-06-30 01:36:00,87.4,58.6,29.76,East,83,2.0,2.0,38,0.00,,,0.00,WeatherCatV1.13B119,2013-06-30 06:36:00,
2013-06-30 01:41:00,87.1,58.4,29.76,East,84,0.0,0.0,38,0.00,,,0.00,WeatherCatV1.13B119,2013-06-30 06:41:00,
2013-06-30 01:46:00,86.8,58.8,29.76,SE,127,1.0,1.0,39,0.00,,,0.00,WeatherCatV1.13B119,2013-06-30 06:46:00,
2013-06-30 01:51:00,86.5,58.6,29.76,ESE,123,1.0,1.0,39,0.00,,,0.00,WeatherCatV1.13B119,2013-06-30 06:51:00,
2013-06-30 01:56:00,86.4,58.5,29.76,East,101,1.0,1.0,39,0.00,,,0.00,WeatherCatV1.13B119,2013-06-30 06:56:00,
2013-06-30 02:01:00,86.2,58.3,29.76,SSW,211,0.0,2.0,39,0.00,,,0.00,WeatherCatV1.13B119,2013-06-30 07:01:00,
2013-06-30 02:06:00,86.3,58.4,29.76,SE,124,0.0,1.0,39,0.00,,,0.00,WeatherCatV1.13B119,2013-06-30 07:06:00,
2013-06-30 02:11:00,86.0,58.1,29.76,ESE,120,0.0,1.0,39,0.00,,,0.00,WeatherCatV1.13B119,2013-06-30 07:11:00,
2013-06-30 02:16:00,85.9,58.0,29.77,SSW,200,0.0,1.0,39,0.00,,,0.00,WeatherCatV1.13B119,2013-06-30 07:16:00,
2013-06-30 02:21:00,85.8,58.7,29.76,SE,126,0.0,1.0,40,0.00,,,0.00,WeatherCatV1.13B119,2013-06-30 07:21:00,
2013-06-30 02:26:00,85.7,58.6,29.76,SSE,150,1.0,1.0,40,0.00,,,0.00,WeatherCatV1.13B119,2013-06-30 07:26:00,
2013-06-30 02:31:00,85.8,58.7,29.76,SE,124,0.0,1.0,40,0.00,,,0.00,WeatherCatV1.13B119,2013-06-30 07:31:00,
2013-06-30 02:36:00,85.7,58.6,29.77,East,101,0.0,1.0,40,0.00,,,0.00,WeatherCatV1.13B119,2013-06-30 07:36:00,
2013-06-30 02:41:00,85.7,58.6,29.77,East,82,0.0,1.0,40,0.00,,,0.00,WeatherCatV1.13B119,2013-06-30 07:41:00,
2013-06-30 02:46:00,85.6,58.5,29.77,East,86,0.0,1.0,40,0.00,,,0.00,WeatherCatV1.13B119,2013-06-30 07:46:00,
2013-06-30 02:51:00,85.5,59.1,29.78,SE,141,0.0,4.0,41,0.00,,,0.00,WeatherCatV1.13B119,2013-06-30 07:51:00,
2013-06-30 02:56:00,85.5,59.8,29.78,SE,143,0.0,0.0,42,0.00,,,0.00,WeatherCatV1.13B119,2013-06-30 07:56:00,
2013-06-30 03:01:00,85.3,59.6,29.78,East,87,1.0,2.0,42,0.00,,,0.00,WeatherCatV1.13B119,2013-06-30 08:01:00,
2013-06-30 03:06:00,85.2,59.5,29.78,SE,136,0.0,1.0,42,0.00,,,0.00,WeatherCatV1.13B119,2013-06-30 08:06:00,
2013-06-30 03:11:00,85.0,60.0,29.77,East,94,2.0,4.0,43,0.00,,,0.00,WeatherCatV1.13B119,2013-06-30 08:11:00,
2013-06-30 03:16:00,84.7,61.6,29.77,East,83,2.0,2.0,46,0.00,,,0.00,WeatherCatV1.13B119,2013-06-30 08:16:00,
2013-06-30 03:21:00,83.8,62.6,29.78,ESE,107,0.0,1.0,49,0.00,,,0.00,WeatherCatV1.13B119,2013-06-30 08:21:00,
2013-06-30 03:26:00,82.8,62.2,29.78,SE,124,0.0,1.0,50,0.00,,,0.00,WeatherCatV1.13B119,2013-06-30 08:26:00,
2013-06-30 03:31:00,82.1,62.7,29.78,East,98,2.0,4.0,52,0.00,,,0.00,WeatherCatV1.13B119,2013-06-30 08:31:00,
2013-06-30 03:36:00,81.7,62.3,29.78,SSW,193,4.0,6.0,52,0.00,,,0.00,WeatherCatV1.13B119,2013-06-30 08:36:00,
2013-06-30 03:41:00,81.5,62.7,29.78,SE,125,2.0,9.0,53,0.00,,,0.00,WeatherCatV1.13B119,2013-06-30 08:41:00,
2013-06-30 03:46:00,81.1,63.4,29.78,SE,124,1.0,4.0,55,0.00,,,0.00,WeatherCatV1.13B119,2013-06-30 08:46:00,
2013-06-30 03:51:00,80.9,63.7,29.79,ESE,108,1.0,2.0,56,0.00,,,0.00,WeatherCatV1.13B119,2013-06-30 08:51:00,
2013-06-30 03:56:00,80.8,64.1,29.79,ESE,103,0.0,1.0,57,0.00,,,0.00,WeatherCatV1.13B119,2013-06-30 08:56:00,
2013-06-30 04:01:00,80.6,63.9,29.78,East,84,4.0,4.0,57,0.00,,,0.00,WeatherCatV1.13B119,2013-06-30 09:01:00,
2013-06-30 04:06:00,80.3,63.7,29.78,ESE,115,2.0,3.0,57,0.00,,,0.00,WeatherCatV1.13B119,2013-06-30 09:06:00,
2013-06-30 04:11:00,80.1,64.0,29.78,ESE,117,3.0,4.0,58,0.00,,,0.00,WeatherCatV1.13B119,2013-06-30 09:11:00,
2013-06-30 04:16:00,79.8,63.7,29.79,ESE,110,2.0,4.0,58,0.00,,,0.00,WeatherCatV1.13B119,2013-06-30 09:16:00,
2013-06-30 04:21:00,79.7,64.1,29.78,SE,132,2.0,5.0,59,0.00,,,0.00,WeatherCatV1.13B119,2013-06-30 09:21:00,
2013-06-30 04:26:00,79.5,64.4,29.79,ESE,119,2.0,5.0,60,0.00,,,0.00,WeatherCatV1.13B119,2013-06-30 09:26:00,
2013-06-30 04:31:00,79.4,64.3,29.78,SE,146,3.0,4.0,60,0.00,,,0.00,WeatherCatV1.13B119,2013-06-30 09:31:00,
2013-06-30 04:36:00,79.3,63.7,29.78,SSE,158,2.0,5.0,59,0.00,,,0.00,WeatherCatV1.13B119,2013-06-30 09:36:00,
2013-06-30 04:41:00,79.2,64.1,29.78,SSE,158,1.0,2.0,60,0.00,,,0.00,WeatherCatV1.13B119,2013-06-30 09:41:00,
2013-06-30 04:46:00,79.0,63.9,29.79,East,101,1.0,1.0,60,0.00,,,0.00,WeatherCatV1.13B119,2013-06-30 09:46:00,
2013-06-30 04:51:00,78.9,64.3,29.78,SSE,150,3.0,5.0,61,0.00,,,0.00,WeatherCatV1.13B119,2013-06-30 09:51:00,
2013-06-30 04:56:00,79.0,63.9,29.77,ESE,120,2.0,4.0,60,0.00,,,0.00,WeatherCatV1.13B119,2013-06-30 09:56:00,
2013-06-30 05:01:00,78.9,63.3,29.77,SE,127,0.0,2.0,59,0.00,,,0.00,WeatherCatV1.13B119,2013-06-30 10:01:00,
2013-06-30 05:06:00,78.9,63.3,29.78,SE,145,3.0,4.0,59,0.00,,,0.00,WeatherCatV1.13B119,2013-06-30 10:06:00,
2013-06-30 05:11:00,79.0,63.4,29.78,South,187,2.0,3.0,59,0.00,,,0.00,WeatherCatV1.13B119,2013-06-30 10:11:00,
2013-06-30 05:16:00,78.8,63.2,29.77,ESE,105,4.0,4.0,59,0.00,,,0.00,WeatherCatV1.13B119,2013-06-30 10:16:00,
2013-06-30 05:21:00,78.8,63.7,29.77,SE,141,0.0,1.0,60,0.00,,,0.00,WeatherCatV1.13B119,2013-06-30 10:21:00,
2013-06-30 05:26:00,78.7,63.1,29.77,SE,126,1.0,2.0,59,0.00,,,0.00,WeatherCatV1.13B119,2013-06-30 10:26:00,
2013-06-30 05:31:00,78.6,64.0,29.78,East,87,0.0,1.0,61,0.00,,,0.00,WeatherCatV1.13B119,2013-06-30 10:31:00,
2013-06-30 05:36:00,78.5,63.9,29.80,East,87,0.0,0.0,61,0.00,,,0.00,WeatherCatV1.13B119,2013-06-30 10:36:00,
2013-06-30 05:41:00,78.4,63.8,29.79,South,181,0.0,0.0,61,0.00,,,0.00,WeatherCatV1.13B119,2013-06-30 10:41:00,
2013-06-30 05:46:00,78.3,64.2,29.77,SSE,163,2.0,2.0,62,0.00,,,0.00,WeatherCatV1.13B119,2013-06-30 10:46:00,
2013-06-30 05:51:00,78.2,63.6,29.78,SSW,200,0.0,0.0,61,0.00,,,0.00,WeatherCatV1.13B119,2013-06-30 10:51:00,
2013-06-30 05:56:00,78.2,64.1,29.78,SE,127,0.0,1.0,62,0.00,,,0.00,WeatherCatV1.13B119,2013-06-30 10:56:00,
2013-06-30 06:01:00,78.1,64.5,29.78,ESE,118,1.0,2.0,63,0.00,,,0.00,WeatherCatV1.13B119,2013-06-30 11:01:00,
2013-06-30 06:06:00,77.9,63.8,29.79,ESE,121,1.0,1.0,62,0.00,,,0.00,WeatherCatV1.13B119,2013-06-30 11:06:00,
2013-06-30 06:11:00,77.8,63.7,29.78,South,188,0.0,2.0,62,0.00,,,0.00,WeatherCatV1.13B119,2013-06-30 11:11:00,
2013-06-30 06:16:00,77.7,64.1,29.79,SSE,165,0.0,2.0,63,0.00,,,0.00,WeatherCatV1.13B119,2013-06-30 11:16:00,
2013-06-30 06:21:00,77.7,64.5,29.79,SSE,160,0.0,0.0,64,0.00,,,0.00,WeatherCatV1.13B119,2013-06-30 11:21:00,
2013-06-30 06:26:00,77.6,64.9,29.78,SE,141,0.0,1.0,65,0.00,,,0.00,WeatherCatV1.13B119,2013-06-30 11:26:00,
2013-06-30 06:31:00,77.4,65.1,29.78,SE,141,0.0,0.0,66,0.00,,,0.00,WeatherCatV1.13B119,2013-06-30 11:31:00,
2013-06-30 06:36:00,77.3,64.6,29.80,SE,134,0.0,0.0,65,0.00,,,0.00,WeatherCatV1.13B119,2013-06-30 11:36:00,
2013-06-30 06:41:00,77.3,65.0,29.81,NNE,15,0.0,0.0,66,0.00,,,0.00,WeatherCatV1.13B119,2013-06-30 11:41:00,
2013-06-30 06:46:00,77.2,65.8,29.80,SSE,155,0.0,0.0,68,0.00,,,0.00,WeatherCatV1.13B119,2013-06-30 11:46:00,
2013-06-30 06:51:00,77.0,66.0,29.81,SSW,200,0.0,0.0,69,0.00,,,0.00,WeatherCatV1.13B119,2013-06-30 11:51:00,
2013-06-30 06:56:00,76.7,66.2,29.81,WSW,240,0.0,0.0,70,0.00,,,0.00,WeatherCatV1.13B119,2013-06-30 11:56:00,
2013-06-30 07:01:00,76.5,66.4,29.82,WSW,240,0.0,0.0,71,0.00,,,0.00,WeatherCatV1.13B119,2013-06-30 12:01:00,
2013-06-30 07:06:00,75.5,68.5,29.83,SW,231,0.0,0.0,79,0.31,,,0.03,WeatherCatV1.13B119,2013-06-30 12:06:00,
2013-06-30 07:11:00,74.1,68.9,29.83,East,89,0.0,0.0,84,0.09,,,0.03,WeatherCatV1.13B119,2013-06-30 12:11:00,
2013-06-30 07:16:00,73.4,68.6,29.83,East,86,0.0,0.0,85,0.05,,,0.03,WeatherCatV1.13B119,2013-06-30 12:16:00,
2013-06-30 07:21:00,73.1,69.0,29.83,SW,229,0.0,0.0,87,0.04,,,0.03,WeatherCatV1.13B119,2013-06-30 12:21:00,
2013-06-30 07:26:00,72.8,69.0,29.83,SW,230,0.0,0.0,88,0.00,,,0.03,WeatherCatV1.13B119,2013-06-30 12:26:00,
2013-06-30 07:31:00,72.4,69.0,29.83,SW,216,0.0,2.0,89,0.71,,,0.08,WeatherCatV1.13B119,2013-06-30 12:31:00,
2013-06-30 07:36:00,72.1,69.0,29.85,WNW,289,0.0,1.0,90,0.18,,,0.10,WeatherCatV1.13B119,2013-06-30 12:36:00,
2013-06-30 07:41:00,71.8,69.0,29.85,NNW,328,0.0,0.0,91,0.07,,,0.10,WeatherCatV1.13B119,2013-06-30 12:41:00,
2013-06-30 07:46:00,71.7,69.2,29.86,WNW,299,2.0,2.0,92,0.05,,,0.10,WeatherCatV1.13B119,2013-06-30 12:46:00,
2013-06-30 07:51:00,71.6,68.5,29.87,WNW,296,1.0,2.0,90,0.00,,,0.10,WeatherCatV1.13B119,2013-06-30 12:51:00,
2013-06-30 07:56:00,71.5,68.7,29.88,WNW,293,1.0,4.0,91,0.00,,,0.10,WeatherCatV1.13B119,2013-06-30 12:56:00,
2013-06-30 08:01:00,71.3,68.2,29.88,WNW,291,1.0,4.0,90,0.00,,,0.10,WeatherCatV1.13B119,2013-06-30 13:01:00,
2013-06-30 08:06:00,71.1,68.0,29.88,WNW,282,1.0,2.0,90,0.00,,,0.10,WeatherCatV1.13B119,2013-06-30 13:06:00,
2013-06-30 08:11:00,71.0,68.2,29.89,WNW,302,1.0,3.0,91,0.00,,,0.10,WeatherCatV1.13B119,2013-06-30 13:11:00,
2013-06-30 08:16:00,70.9,68.1,29.89,NW,316,2.0,6.0,91,0.00,,,0.10,WeatherCatV1.13B119,2013-06-30 13:16:00,
2013-06-30 08:21:00,71.0,68.2,29.89,WNW,293,0.0,3.0,91,0.00,,,0.10,WeatherCatV1.13B119,2013-06-30 13:21:00,
2013-06-30 08:26:00,71.1,68.7,29.90,SW,221,0.0,0.0,92,0.00,,,0.10,WeatherCatV1.13B119,2013-06-30 13:26:00,
2013-06-30 08:31:00,71.1,69.0,29.90,West,276,0.0,2.0,93,0.00,,,0.10,WeatherCatV1.13B119,2013-06-30 13:31:00,
2013-06-30 08:36:00,71.2,69.1,29.90,SW,217,0.0,2.0,93,0.00,,,0.10,WeatherCatV1.13B119,2013-06-30 13:36:00,
2013-06-30 08:41:00,71.3,68.8,29.90,West,271,0.0,3.0,92,0.00,,,0.10,WeatherCatV1.13B119,2013-06-30 13:41:00,
2013-06-30 08:46:00,71.4,68.9,29.90,South,178,0.0,0.0,92,0.00,,,0.10,WeatherCatV1.13B119,2013-06-30 13:46:00,
2013-06-30 08:51:00,71.4,68.9,29.90,WNW,299,1.0,2.0,92,0.00,,,0.10,WeatherCatV1.13B119,2013-06-30 13:51:00,
2013-06-30 08:56:00,71.4,68.6,29.90,SW,224,0.0,1.0,91,0.00,,,0.10,WeatherCatV1.13B119,2013-06-30 13:56:00,
2013-06-30 09:01:00,71.5,68.7,29.90,SW,230,0.0,1.0,91,0.00,,,0.10,WeatherCatV1.13B119,2013-06-30 14:01:00,
2013-06-30 09:06:00,71.6,68.8,29.90,SW,230,0.0,0.0,91,0.00,,,0.10,WeatherCatV1.13B119,2013-06-30 14:06:00,
2013-06-30 09:11:00,71.7,68.9,29.91,SW,219,0.0,0.0,91,0.00,,,0.10,WeatherCatV1.13B119,2013-06-30 14:11:00,
2013-06-30 09:16:00,71.8,69.0,29.91,SW,229,0.0,0.0,91,0.00,,,0.10,WeatherCatV1.13B119,2013-06-30 14:16:00,
2013-06-30 09:21:00,71.8,69.0,29.90,WSW,250,0.0,0.0,91,0.00,,,0.10,WeatherCatV1.13B119,2013-06-30 14:21:00,
2013-06-30 09:26:00,71.9,68.8,29.91,SW,220,0.0,0.0,90,0.00,,,0.10,WeatherCatV1.13B119,2013-06-30 14:26:00,
2013-06-30 09:31:00,72.0,68.6,29.90,SW,220,0.0,1.0,89,0.00,,,0.10,WeatherCatV1.13B119,2013-06-30 14:31:00,
2013-06-30 09:36:00,72.1,69.0,29.90,SW,220,0.0,0.0,90,0.00,,,0.10,WeatherCatV1.13B119,2013-06-30 14:36:00,
2013-06-30 09:41:00,72.2,69.1,29.90,SW,220,0.0,0.0,90,0.00,,,0.10,WeatherCatV1.13B119,2013-06-30 14:41:00,
2013-06-30 09:46:00,72.4,69.6,29.90,SW,220,0.0,0.0,91,0.00,,,0.10,WeatherCatV1.13B119,2013-06-30 14:46:00,
2013-06-30 09:51:00,72.6,69.5,29.89,SW,227,0.0,0.0,90,0.00,,,0.10,WeatherCatV1.13B119,2013-06-30 14:51:00,
2013-06-30 09:56:00,72.9,69.5,29.89,SW,227,0.0,0.0,89,0.00,,,0.10,WeatherCatV1.13B119,2013-06-30 14:56:00,
2013-06-30 10:01:00,73.3,69.2,29.89,SW,227,0.0,0.0,87,0.00,,,0.10,WeatherCatV1.13B119,2013-06-30 15:01:00,
2013-06-30 10:06:00,73.7,69.2,29.89,SSW,204,0.0,1.0,86,0.00,,,0.10,WeatherCatV1.13B119,2013-06-30 15:06:00,
2013-06-30 10:11:00,74.1,69.6,29.89,SSW,205,0.0,0.0,86,0.00,,,0.10,WeatherCatV1.13B119,2013-06-30 15:11:00,
2013-06-30 10:16:00,74.7,70.6,29.89,SSW,200,0.0,0.0,87,0.00,,,0.10,WeatherCatV1.13B119,2013-06-30 15:16:00,
2013-06-30 10:21:00,75.2,70.7,29.88,SSW,200,0.0,0.0,86,0.00,,,0.10,WeatherCatV1.13B119,2013-06-30 15:21:00,
2013-06-30 10:26:00,75.6,71.1,29.88,SW,234,0.0,0.0,86,0.00,,,0.10,WeatherCatV1.13B119,2013-06-30 15:26:00,
2013-06-30 10:31:00,76.1,70.9,29.88,SW,214,0.0,0.0,84,0.00,,,0.10,WeatherCatV1.13B119,2013-06-30 15:31:00,
2013-06-30 10:36:00,76.4,70.1,29.88,WSW,256,2.0,2.0,81,0.00,,,0.10,WeatherCatV1.13B119,2013-06-30 15:36:00,
2013-06-30 10:41:00,76.5,70.2,29.88,SW,224,0.0,2.0,81,0.00,,,0.10,WeatherCatV1.13B119,2013-06-30 15:41:00,
2013-06-30 10:46:00,77.2,70.2,29.88,SW,228,1.0,1.0,79,0.00,,,0.10,WeatherCatV1.13B119,2013-06-30 15:46:00,
2013-06-30 10:51:00,78.1,70.3,29.87,WNW,283,1.0,1.0,77,0.00,,,0.10,WeatherCatV1.13B119,2013-06-30 15:51:00,
2013-06-30 10:56:00,78.6,71.5,29.87,WSW,239,2.0,3.0,79,0.00,,,0.10,WeatherCatV1.13B119,2013-06-30 15:56:00,
2013-06-30 11:01:00,79.2,70.6,29.87,SE,127,0.0,4.0,75,0.00,,,0.10,WeatherCatV1.13B119,2013-06-30 16:01:00,
2013-06-30 11:06:00,79.8,69.9,29.87,WNW,289,1.0,2.0,72,0.00,,,0.10,WeatherCatV1.13B119,2013-06-30 16:06:00,
2013-06-30 11:11:00,80.3,69.6,29.87,South,189,0.0,4.0,70,0.00,,,0.10,WeatherCatV1.13B119,2013-06-30 16:11:00,
2013-06-30 11:16:00,80.8,70.5,29.86,WNW,295,2.0,3.0,71,0.00,,,0.10,WeatherCatV1.13B119,2013-06-30 16:16:00,
2013-06-30 11:21:00,81.3,70.1,29.86,South,188,1.0,1.0,69,0.00,,,0.10,WeatherCatV1.13B119,2013-06-30 16:21:00,
2013-06-30 11:26:00,82.1,70.0,29.86,WSW,243,0.0,2.0,67,0.00,,,0.10,WeatherCatV1.13B119,2013-06-30 16:26:00,
2013-06-30 11:31:00,82.9,69.4,29.86,West,274,1.0,1.0,64,0.00,,,0.10,WeatherCatV1.13B119,2013-06-30 16:31:00,
2013-06-30 11:36:00,83.5,68.6,29.86,SW,221,1.0,3.0,61,0.00,,,0.10,WeatherCatV1.13B119,2013-06-30 16:36:00,
2013-06-30 11:41:00,84.1,69.6,29.85,SW,214,2.0,3.0,62,0.00,,,0.10,WeatherCatV1.13B119,2013-06-30 16:41:00,
2013-06-30 11:46:00,84.7,69.2,29.85,SW,218,2.0,6.0,60,0.00,,,0.10,WeatherCatV1.13B119,2013-06-30 16:46:00,
2013-06-30 11:51:00,84.6,69.2,29.85,WNW,295,0.0,2.0,60,0.00,,,0.10,WeatherCatV1.13B119,2013-06-30 16:51:00,
2013-06-30 11:56:00,85.6,70.1,29.85,SE,130,1.0,4.0,60,0.00,,,0.10,WeatherCatV1.13B119,2013-06-30 16:56:00,
2013-06-30 12:01:00,86.1,69.1,29.86,WNW,296,0.0,3.0,57,0.00,,,0.10,WeatherCatV1.13B119,2013-06-30 17:01:00,
2013-06-30 12:06:00,86.7,69.1,29.86,SE,129,0.0,2.0,56,0.00,,,0.10,WeatherCatV1.13B119,2013-06-30 17:06:00,
2013-06-30 12:11:00,87.6,69.4,29.86,East,86,2.0,3.0,55,0.00,,,0.10,WeatherCatV1.13B119,2013-06-30 17:11:00,
2013-06-30 12:16:00,87.3,69.1,29.86,SE,129,1.0,2.0,55,0.00,,,0.10,WeatherCatV1.13B119,2013-06-30 17:16:00,
2013-06-30 12:21:00,87.9,69.7,29.85,NW,324,1.0,5.0,55,0.00,,,0.10,WeatherCatV1.13B119,2013-06-30 17:21:00,
2013-06-30 12:26:00,88.4,69.6,29.85,SW,220,1.0,5.0,54,0.00,,,0.10,WeatherCatV1.13B119,2013-06-30 17:26:00,
2013-06-30 12:31:00,88.4,69.1,29.85,West,281,0.0,2.0,53,0.00,,,0.10,WeatherCatV1.13B119,2013-06-30 17:31:00,
2013-06-30 12:36:00,89.0,69.6,29.86,West,260,2.0,3.0,53,0.00,,,0.10,WeatherCatV1.13B119,2013-06-30 17:36:00,
2013-06-30 12:41:00,89.2,68.7,29.86,SE,137,0.0,0.0,51,0.00,,,0.10,WeatherCatV1.13B119,2013-06-30 17:41:00,
2013-06-30 12:46:00,89.3,68.2,29.85,SW,225,2.0,5.0,50,0.00,,,0.10,WeatherCatV1.13B119,2013-06-30 17:46:00,
2013-06-30 12:51:00,89.0,68.5,29.85,SW,219,1.0,2.0,51,0.00,,,0.10,WeatherCatV1.13B119,2013-06-30 17:51:00,
2013-06-30 12:56:00,88.6,68.7,29.85,SW,236,0.0,3.0,52,0.00,,,0.10,WeatherCatV1.13B119,2013-06-30 17:56:00,
2013-06-30 13:01:00,88.2,68.3,29.84,West,259,0.0,1.0,52,0.00,,,0.10,WeatherCatV1.13B119,2013-06-30 18:01:00,
2013-06-30 13:06:00,88.1,68.2,29.85,WSW,253,0.0,2.0,52,0.00,,,0.10,WeatherCatV1.13B119,2013-06-30 18:06:00,
2013-06-30 13:11:00,88.4,68.5,29.85,West,266,0.0,1.0,52,0.00,,,0.10,WeatherCatV1.13B119,2013-06-30 18:11:00,
2013-06-30 13:16:00,88.8,68.3,29.85,WNW,301,1.0,2.0,51,0.00,,,0.10,WeatherCatV1.13B119,2013-06-30 18:16:00,
2013-06-30 13:21:00,88.6,68.7,29.85,WSW,258,1.0,2.0,52,0.00,,,0.10,WeatherCatV1.13B119,2013-06-30 18:21:00,
2013-06-30 13:26:00,88.4,67.9,29.85,West,260,0.0,3.0,51,0.00,,,0.10,WeatherCatV1.13B119,2013-06-30 18:26:00,
2013-06-30 13:31:00,88.4,67.9,29.85,SW,226,0.0,3.0,51,0.00,,,0.10,WeatherCatV1.13B119,2013-06-30 18:31:00,
2013-06-30 13:36:00,88.3,68.4,29.85,WSW,248,0.0,1.0,52,0.00,,,0.10,WeatherCatV1.13B119,2013-06-30 18:36:00,
2013-06-30 13:41:00,88.3,69.0,29.85,WSW,244,0.0,0.0,53,0.00,,,0.10,WeatherCatV1.13B119,2013-06-30 18:41:00,
2013-06-30 13:46:00,88.2,68.9,29.84,West,274,0.0,0.0,53,0.00,,,0.10,WeatherCatV1.13B119,2013-06-30 18:46:00,
2013-06-30 13:51:00,88.4,69.1,29.84,West,271,0.0,0.0,53,0.00,,,0.10,WeatherCatV1.13B119,2013-06-30 18:51:00,
2013-06-30 13:56:00,88.4,67.9,29.84,SW,219,1.0,2.0,51,0.00,,,0.10,WeatherCatV1.13B119,2013-06-30 18:56:00,
2013-06-30 14:01:00,88.5,68.6,29.84,SW,230,0.0,2.0,52,0.00,,,0.10,WeatherCatV1.13B119,2013-06-30 19:01:00,
2013-06-30 14:06:00,89.4,68.8,29.84,NNW,327,1.0,3.0,51,0.00,,,0.10,WeatherCatV1.13B119,2013-06-30 19:06:00,
2013-06-30 14:11:00,90.9,67.8,29.84,WSW,258,2.0,4.0,47,0.00,,,0.10,WeatherCatV1.13B119,2013-06-30 19:11:00,
2013-06-30 14:16:00,91.2,68.1,29.84,SSW,204,0.0,2.0,47,0.00,,,0.10,WeatherCatV1.13B119,2013-06-30 19:16:00,
2013-06-30 14:21:00,92.3,68.5,29.84,ESE,115,1.0,3.0,46,0.00,,,0.10,WeatherCatV1.13B119,2013-06-30 19:21:00,
2013-06-30 14:26:00,92.4,69.2,29.84,WSW,248,1.0,2.0,47,0.00,,,0.10,WeatherCatV1.13B119,2013-06-30 19:26:00,
2013-06-30 14:31:00,92.1,68.9,29.83,SSW,206,1.0,5.0,47,0.00,,,0.10,WeatherCatV1.13B119,2013-06-30 19:31:00,
2013-06-30 14:36:00,91.8,69.3,29.83,SSW,206,3.0,5.0,48,0.00,,,0.10,WeatherCatV1.13B119,2013-06-30 19:36:00,
2013-06-30 14:41:00,92.2,67.7,29.83,SSE,156,3.0,6.0,45,0.00,,,0.10,WeatherCatV1.13B119,2013-06-30 19:41:00,
2013-06-30 14:46:00,93.4,68.8,29.83,East,96,2.0,5.0,45,0.00,,,0.10,WeatherCatV1.13B119,2013-06-30 19:46:00,
2013-06-30 14:51:00,93.6,69.7,29.83,SSW,202,1.0,1.0,46,0.00,,,0.10,WeatherCatV1.13B119,2013-06-30 19:51:00,
2013-06-30 14:56:00,93.8,67.9,29.83,NNE,22,0.0,4.0,43,0.00,,,0.10,WeatherCatV1.13B119,2013-06-30 19:56:00,
2013-06-30 15:01:00,94.3,67.6,29.83,SSW,200,2.0,7.0,42,0.00,,,0.10,WeatherCatV1.13B119,2013-06-30 20:01:00,
2013-06-30 15:06:00,94.4,66.3,29.82,WNW,285,0.0,2.0,40,0.00,,,0.10,WeatherCatV1.13B119,2013-06-30 20:06:00,
2013-06-30 15:11:00,94.5,67.8,29.83,SSE,155,2.0,4.0,42,0.00,,,0.10,WeatherCatV1.13B119,2013-06-30 20:11:00,
2013-06-30 15:16:00,94.5,67.1,29.82,WSW,254,1.0,4.0,41,0.00,,,0.10,WeatherCatV1.13B119,2013-06-30 20:16:00,
2013-06-30 15:21:00,94.7,68.7,29.82,WSW,250,1.0,4.0,43,0.00,,,0.10,WeatherCatV1.13B119,2013-06-30 20:21:00,
2013-06-30 15:26:00,94.1,67.4,29.82,SSE,151,3.0,5.0,42,0.00,,,0.10,WeatherCatV1.13B119,2013-06-30 20:26:00,
2013-06-30 15:31:00,93.7,66.4,29.82,SSW,205,6.0,6.0,41,0.00,,,0.10,WeatherCatV1.13B119,2013-06-30 20:31:00,
2013-06-30 15:36:00,94.1,65.3,29.82,WNW,292,1.0,6.0,39,0.00,,,0.10,WeatherCatV1.13B119,2013-06-30 20:36:00,
2013-06-30 15:41:00,95.5,66.5,29.82,SW,224,2.0,5.0,39,0.00,,,0.10,WeatherCatV1.13B119,2013-06-30 20:41:00,
2013-06-30 15:46:00,95.4,65.7,29.82,SSE,148,6.0,6.0,38,0.00,,,0.10,WeatherCatV1.13B119,2013-06-30 20:46:00,
2013-06-30 15:51:00,95.9,65.4,29.81,SSE,165,5.0,5.0,37,0.00,,,0.10,WeatherCatV1.13B119,2013-06-30 20:51:00,
2013-06-30 15:56:00,96.2,64.9,29.81,WSW,247,4.0,6.0,36,0.00,,,0.10,WeatherCatV1.13B119,2013-06-30 20:56:00,
2013-06-30 16:01:00,96.3,65.7,29.81,WNW,290,4.0,7.0,37,0.00,,,0.10,WeatherCatV1.13B119,2013-06-30 21:01:00,
2013-06-30 16:06:00,95.7,66.0,29.81,ESE,117,4.0,6.0,38,0.00,,,0.10,WeatherCatV1.13B119,2013-06-30 21:06:00,
2013-06-30 16:11:00,94.7,65.1,29.81,West,275,2.0,3.0,38,0.00,,,0.10,WeatherCatV1.13B119,2013-06-30 21:11:00,
2013-06-30 16:16:00,94.2,66.1,29.80,West,281,1.0,2.0,40,0.00,,,0.10,WeatherCatV1.13B119,2013-06-30 21:16:00,
2013-06-30 16:21:00,93.9,64.4,29.81,SE,134,0.0,0.0,38,0.00,,,0.10,WeatherCatV1.13B119,2013-06-30 21:21:00,
2013-06-30 16:26:00,93.2,64.5,29.80,West,260,1.0,6.0,39,0.00,,,0.10,WeatherCatV1.13B119,2013-06-30 21:26:00,
2013-06-30 16:31:00,92.7,65.5,29.81,WSW,241,0.0,3.0,41,0.00,,,0.10,WeatherCatV1.13B119,2013-06-30 21:31:00,
2013-06-30 16:36:00,92.3,65.8,29.80,SSE,158,0.0,1.0,42,0.00,,,0.10,WeatherCatV1.13B119,2013-06-30 21:36:00,
2013-06-30 16:41:00,93.5,65.5,29.80,SSW,193,0.0,0.0,40,0.00,,,0.10,WeatherCatV1.13B119,2013-06-30 21:41:00,
2013-06-30 16:46:00,95.3,65.6,29.80,SSE,161,2.0,4.0,38,0.00,,,0.10,WeatherCatV1.13B119,2013-06-30 21:46:00,
2013-06-30 16:51:00,94.7,65.1,29.80,West,263,0.0,2.0,38,0.00,,,0.10,WeatherCatV1.13B119,2013-06-30 21:51:00,
2013-06-30 16:56:00,94.7,65.1,29.79,SSW,205,1.0,2.0,38,0.00,,,0.10,WeatherCatV1.13B119,2013-06-30 21:56:00,
2013-06-30 17:01:00,95.5,65.8,29.79,West,266,1.0,5.0,38,0.00,,,0.10,WeatherCatV1.13B119,2013-06-30 22:01:00,
2013-06-30 17:06:00,94.5,64.1,29.79,SW,216,1.0,4.0,37,0.00,,,0.10,WeatherCatV1.13B119,2013-06-30 22:06:00,
2013-06-30 17:11:00,93.6,64.1,29.80,South,182,3.0,6.0,38,0.00,,,0.10,WeatherCatV1.13B119,2013-06-30 22:11:00,
2013-06-30 17:16:00,93.3,64.6,29.79,West,262,1.0,4.0,39,0.00,,,0.10,WeatherCatV1.13B119,2013-06-30 22:16:00,
2013-06-30 17:21:00,93.0,64.3,29.79,WSW,251,4.0,4.0,39,0.00,,,0.10,WeatherCatV1.13B119,2013-06-30 22:21:00,
2013-06-30 17:26:00,93.0,64.3,29.79,West,259,2.0,6.0,39,0.00,,,0.10,WeatherCatV1.13B119,2013-06-30 22:26:00,
2013-06-30 17:31:00,92.9,64.2,29.79,WSW,252,1.0,3.0,39,0.00,,,0.10,WeatherCatV1.13B119,2013-06-30 22:31:00,
2013-06-30 17:36:00,92.7,63.3,29.79,WSW,255,0.0,1.0,38,0.00,,,0.10,WeatherCatV1.13B119,2013-06-30 22:36:00,
2013-06-30 17:41:00,92.6,64.0,29.78,SW,225,1.0,4.0,39,0.00,,,0.10,WeatherCatV1.13B119,2013-06-30 22:41:00,
2013-06-30 17:46:00,93.0,62.8,29.78,South,191,1.0,5.0,37,0.00,,,0.10,WeatherCatV1.13B119,2013-06-30 22:46:00,
2013-06-30 17:51:00,93.8,62.7,29.78,SSW,208,1.0,2.0,36,0.00,,,0.10,WeatherCatV1.13B119,2013-06-30 22:51:00,
2013-06-30 17:56:00,94.5,62.6,29.78,WNW,289,0.0,4.0,35,0.00,,,0.10,WeatherCatV1.13B119,2013-06-30 22:56:00,
2013-06-30 18:01:00,94.8,63.6,29.78,WNW,286,2.0,3.0,36,0.00,,,0.10,WeatherCatV1.13B119,2013-06-30 23:01:00,
2013-06-30 18:06:00,95.0,63.8,29.78,WSW,238,0.0,4.0,36,0.00,,,0.10,WeatherCatV1.13B119,2013-06-30 23:06:00,
2013-06-30 18:11:00,95.7,62.8,29.77,SW,217,3.0,3.0,34,0.00,,,0.10,WeatherCatV1.13B119,2013-06-30 23:11:00,
2013-06-30 18:16:00,95.8,63.7,29.77,West,269,2.0,2.0,35,0.00,,,0.10,WeatherCatV1.13B119,2013-06-30 23:16:00,
2013-06-30 18:21:00,94.9,63.7,29.77,West,278,2.0,6.0,36,0.00,,,0.10,WeatherCatV1.13B119,2013-06-30 23:21:00,
2013-06-30 18:26:00,94.8,63.6,29.77,West,264,1.0,4.0,36,0.00,,,0.10,WeatherCatV1.13B119,2013-06-30 23:26:00,
2013-06-30 18:31:00,95.0,64.6,29.77,NNW,328,4.0,4.0,37,0.00,,,0.10,WeatherCatV1.13B119,2013-06-30 23:31:00,
2013-06-30 18:36:00,94.9,63.7,29.77,SW,231,2.0,5.0,36,0.00,,,0.10,WeatherCatV1.13B119,2013-06-30 23:36:00,
2013-06-30 18:41:00,94.6,64.2,29.77,West,276,2.0,3.0,37,0.00,,,0.10,WeatherCatV1.13B119,2013-06-30 23:41:00,
2013-06-30 18:46:00,94.4,64.1,29.77,WNW,294,1.0,2.0,37,0.00,,,0.10,WeatherCatV1.13B119,2013-06-30 23:46:00,
2013-06-30 18:51:00,94.1,63.8,29.77,West,268,6.0,6.0,37,0.00,,,0.10,WeatherCatV1.13B119,2013-06-30 23:51:00,
2013-06-30 18:56:00,93.9,64.4,29.76,SSW,194,1.0,4.0,38,0.00,,,0.10,WeatherCatV1.13B119,2013-06-30 23:56:00,
2013-06-30 19:01:00,93.7,64.2,29.76,NNE,13,1.0,4.0,38,0.00,,,0.10,WeatherCatV1.13B119,2013-07-01 00:01:00,
2013-06-30 19:06:00,93.2,63.8,29.76,WSW,243,0.0,2.0,38,0.00,,,0.10,WeatherCatV1.13B119,2013-07-01 00:06:00,
2013-06-30 19:11:00,92.7,63.3,29.77,West,268,1.0,1.0,38,0.00,,,0.10,WeatherCatV1.13B119,2013-07-01 00:11:00,
2013-06-30 19:16:00,92.3,64.4,29.76,West,273,1.0,2.0,40,0.00,,,0.10,WeatherCatV1.13B119,2013-07-01 00:16:00,
2013-06-30 19:21:00,91.9,64.1,29.76,NW,325,1.0,2.0,40,0.00,,,0.10,WeatherCatV1.13B119,2013-07-01 00:21:00,
2013-06-30 19:26:00,91.5,63.0,29.76,WSW,258,1.0,5.0,39,0.00,,,0.10,WeatherCatV1.13B119,2013-07-01 00:26:00,
2013-06-30 19:31:00,91.3,63.5,29.77,West,271,1.0,2.0,40,0.00,,,0.10,WeatherCatV1.13B119,2013-07-01 00:31:00,
2013-06-30 19:36:00,91.0,64.0,29.76,West,259,0.0,1.0,41,0.00,,,0.10,WeatherCatV1.13B119,2013-07-01 00:36:00,
2013-06-30 19:41:00,90.8,63.1,29.77,WNW,292,1.0,1.0,40,0.00,,,0.10,WeatherCatV1.13B119,2013-07-01 00:41:00,
2013-06-30 19:46:00,90.6,63.6,29.77,West,264,0.0,0.0,41,0.00,,,0.10,WeatherCatV1.13B119,2013-07-01 00:46:00,
2013-06-30 19:51:00,90.3,63.4,29.77,WNW,301,0.0,1.0,41,0.00,,,0.10,WeatherCatV1.13B119,2013-07-01 00:51:00,
2013-06-30 19:56:00,90.0,63.8,29.77,NW,304,1.0,1.0,42,0.00,,,0.10,WeatherCatV1.13B119,2013-07-01 00:56:00,
2013-06-30 20:01:00,89.7,63.5,29.77,West,278,0.0,1.0,42,0.00,,,0.10,WeatherCatV1.13B119,2013-07-01 01:01:00,
2013-06-30 20:06:00,89.5,64.0,29.77,West,259,0.0,0.0,43,0.00,,,0.10,WeatherCatV1.13B119,2013-07-01 01:06:00,
2013-06-30 20:11:00,89.4,63.9,29.77,West,269,0.0,1.0,43,0.00,,,0.10,WeatherCatV1.13B119,2013-07-01 01:11:00,
2013-06-30 20:16:00,89.1,63.6,29.77,West,269,0.0,0.0,43,0.00,,,0.10,WeatherCatV1.13B119,2013-07-01 01:16:00,
2013-06-30 20:21:00,88.6,63.9,29.77,West,269,0.0,0.0,44,0.00,,,0.10,WeatherCatV1.13B119,2013-07-01 01:21:00,
2013-06-30 20:26:00,88.1,64.0,29.77,West,269,0.0,0.0,45,0.00,,,0.10,WeatherCatV1.13B119,2013-07-01 01:26:00,
2013-06-30 20:31:00,87.5,64.1,29.77,West,269,0.0,0.0,46,0.00,,,0.10,WeatherCatV1.13B119,2013-07-01 01:31:00,
2013-06-30 20:36:00,87.0,64.3,29.77,SW,229,0.0,2.0,47,0.00,,,0.10,WeatherCatV1.13B119,2013-07-01 01:36:00,
2013-06-30 20:41:00,86.6,64.5,29.77,West,270,0.0,0.0,48,0.00,,,0.10,WeatherCatV1.13B119,2013-07-01 01:41:00,
2013-06-30 20:46:00,86.3,64.9,29.77,West,270,0.0,0.0,49,0.00,,,0.10,WeatherCatV1.13B119,2013-07-01 01:46:00,
2013-06-30 20:51:00,85.6,64.8,29.78,West,270,0.0,0.0,50,0.00,,,0.10,WeatherCatV1.13B119,2013-07-01 01:51:00,
2013-06-30 20:56:00,85.0,64.8,29.78,West,270,0.0,0.0,51,0.00,,,0.10,WeatherCatV1.13B119,2013-07-01 01:56:00,
2013-06-30 21:01:00,84.6,65.6,29.78,West,270,0.0,0.0,53,0.00,,,0.10,WeatherCatV1.13B119,2013-07-01 02:01:00,
2013-06-30 21:06:00,84.1,65.6,29.78,West,270,0.0,0.0,54,0.00,,,0.10,WeatherCatV1.13B119,2013-07-01 02:06:00,
2013-06-30 21:11:00,83.8,65.9,29.78,West,270,0.0,0.0,55,0.00,,,0.10,WeatherCatV1.13B119,2013-07-01 02:11:00,
2013-06-30 21:16:00,83.5,65.6,29.78,West,270,0.0,0.0,55,0.00,,,0.10,WeatherCatV1.13B119,2013-07-01 02:16:00,
2013-06-30 21:21:00,83.3,66.4,29.78,West,270,0.0,0.0,57,0.00,,,0.10,WeatherCatV1.13B119,2013-07-01 02:21:00,
2013-06-30 21:26:00,82.9,66.6,29.79,West,270,0.0,0.0,58,0.00,,,0.10,WeatherCatV1.13B119,2013-07-01 02:26:00,
2013-06-30 21:31:00,82.4,66.6,29.79,West,270,0.0,0.0,59,0.00,,,0.10,WeatherCatV1.13B119,2013-07-01 02:31:00,
2013-06-30 21:36:00,82.0,66.7,29.79,West,270,0.0,0.0,60,0.00,,,0.10,WeatherCatV1.13B119,2013-07-01 02:36:00,
2013-06-30 21:41:00,81.7,66.9,29.79,West,270,0.0,0.0,61,0.00,,,0.10,WeatherCatV1.13B119,2013-07-01 02:41:00,
2013-06-30 21:46:00,81.7,67.4,29.79,West,270,0.0,0.0,62,0.00,,,0.10,WeatherCatV1.13B119,2013-07-01 02:46:00,
2013-06-30 21:51:00,81.5,67.2,29.79,West,270,0.0,0.0,62,0.00,,,0.10,WeatherCatV1.13B119,2013-07-01 02:51:00,
2013-06-30 21:56:00,81.0,67.2,29.79,West,270,0.0,0.0,63,0.00,,,0.10,WeatherCatV1.13B119,2013-07-01 02:56:00,
2013-06-30 22:01:00,80.5,67.2,29.80,West,270,0.0,0.0,64,0.00,,,0.10,WeatherCatV1.13B119,2013-07-01 03:01:00,
2013-06-30 22:06:00,80.1,68.1,29.80,West,270,0.0,0.0,67,0.00,,,0.10,WeatherCatV1.13B119,2013-07-01 03:06:00,
2013-06-30 22:11:00,79.7,67.7,29.80,West,270,0.0,0.0,67,0.00,,,0.10,WeatherCatV1.13B119,2013-07-01 03:11:00,
2013-06-30 22:16:00,79.4,67.9,29.80,West,270,0.0,0.0,68,0.00,,,0.10,WeatherCatV1.13B119,2013-07-01 03:16:00,
2013-06-30 22:21:00,79.4,67.9,29.80,West,270,0.0,0.0,68,0.00,,,0.10,WeatherCatV1.13B119,2013-07-01 03:21:00,
2013-06-30 22:26:00,79.5,68.0,29.81,West,270,0.0,0.0,68,0.00,,,0.10,WeatherCatV1.13B119,2013-07-01 03:26:00,
2013-06-30 22:31:00,79.4,68.7,29.81,West,270,0.0,0.0,70,0.00,,,0.10,WeatherCatV1.13B119,2013-07-01 03:31:00,
2013-06-30 22:36:00,79.1,68.5,29.81,West,270,0.0,0.0,70,0.00,,,0.10,WeatherCatV1.13B119,2013-07-01 03:36:00,
2013-06-30 22:41:00,78.8,68.2,29.81,West,270,0.0,0.0,70,0.00,,,0.10,WeatherCatV1.13B119,2013-07-01 03:41:00,
2013-06-30 22:46:00,79.1,68.5,29.82,West,270,0.0,0.0,70,0.00,,,0.10,WeatherCatV1.13B119,2013-07-01 03:46:00,
2013-06-30 22:51:00,79.4,68.7,29.82,West,270,0.0,0.0,70,0.00,,,0.10,WeatherCatV1.13B119,2013-07-01 03:51:00,
2013-06-30 22:56:00,79.3,69.1,29.82,West,270,0.0,0.0,71,0.00,,,0.10,WeatherCatV1.13B119,2013-07-01 03:56:00,
2013-06-30 23:01:00,79.2,69.0,29.82,West,270,0.0,0.0,71,0.00,,,0.10,WeatherCatV1.13B119,2013-07-01 04:01:00,
2013-06-30 23:06:00,79.2,68.5,29.82,West,270,0.0,0.0,70,0.00,,,0.10,WeatherCatV1.13B119,2013-07-01 04:06:00,
2013-06-30 23:11:00,79.3,68.6,29.83,West,270,0.0,0.0,70,0.00,,,0.10,WeatherCatV1.13B119,2013-07-01 04:11:00,
2013-06-30 23:16:00,79.5,68.4,29.83,West,268,0.0,0.0,69,0.00,,,0.10,WeatherCatV1.13B119,2013-07-01 04:16:00,
2013-06-30 23:21:00,79.7,69.0,29.83,West,268,0.0,0.0,70,0.00,,,0.10,WeatherCatV1.13B119,2013-07-01 04:21:00,
2013-06-30 23:26:00,79.8,69.1,29.83,West,268,0.0,0.0,70,0.00,,,0.10,WeatherCatV1.13B119,2013-07-01 04:26:00,
2013-06-30 23:31:00,79.9,69.2,29.83,West,268,0.0,0.0,70,0.00,,,0.10,WeatherCatV1.13B119,2013-07-01 04:31:00,
2013-06-30 23:36:00,79.6,68.9,29.83,West,268,0.0,0.0,70,0.00,,,0.10,WeatherCatV1.13B119,2013-07-01 04:36:00,
2013-06-30 23:41:00,79.4,69.2,29.84,West,268,0.0,0.0,71,0.00,,,0.10,WeatherCatV1.13B119,2013-07-01 04:41:00,
2013-06-30 23:46:00,79.0,68.4,29.84,West,268,0.0,0.0,70,0.00,,,0.10,WeatherCatV1.13B119,2013-07-01 04:46:00,
2013-06-30 23:51:00,78.8,68.6,29.84,NW,311,0.0,0.0,71,0.00,,,0.10,WeatherCatV1.13B119,2013-07-01 04:51:00,
2013-06-30 23:56:00,78.8,68.2,29.84,NW,311,0.0,0.0,70,0.00,,,0.10,WeatherCatV1.13B119,2013-07-01 04:56:00,